FW6588 Weather Reports


time (UTC)temp
C
wind
direction
speed
KPH
gust
KPH
rain 1hr
cm
rain 24hr
cm
rain mn
cm
humidity
%
barometer
mb
20260506002501 27 213 1.6 8.0 0.00 0.00 0.00 65 1005.0
20260506001625 27 218 1.6 8.0 0.00 0.00 0.00 65 1004.9
20260506001127 27 220 0.0 6.4 0.00 0.00 0.00 64 1004.9
20260506000627 28 257 1.6 8.0 0.00 0.00 0.00 64 1004.8
20260506000125 28 356 1.6 8.0 0.00 0.00 0.00 63 1004.3
20260505235623 28 311 1.6 9.7 0.00 0.00 0.00 62 1004.1
20260505235123 28 264 1.6 9.7 0.00 0.00 0.00 60 1004.1
20260505234621 29 41 1.6 8.0 0.00 0.00 0.00 58 1004.2
20260505234121 29 297 0.0 4.8 0.00 0.00 0.00 57 1004.0
20260505233622 29 323 0.0 3.2 0.00 0.00 0.00 58 1004.1
20260505233126 29 210 1.6 11.3 0.00 0.00 0.00 60 1004.1
20260505232619 29 233 1.6 11.3 0.00 0.00 0.00 63 1003.8
20260505232120 29 282 1.6 8.0 0.00 0.00 0.00 72 1003.5
20260505231619 29 167 1.6 8.0 0.00 0.00 0.00 72 1003.5
20260505231119 29 245 1.6 8.0 0.00 0.00 0.00 72 1003.4
20260505230618 29 20 1.6 8.0 0.00 0.00 0.00 72 1003.4
20260505230119 29 20 1.6 9.7 0.00 0.00 0.00 71 1003.3
20260505225934 30 272 3.2 12.9 0.00 0.00 0.00 71 1003.3
20260505225117 30 72 3.2 12.9 0.00 0.00 0.00 70 1003.4
20260505224615 30 84 1.6 11.3 0.00 0.00 0.00 69 1003.5
20260505224118 30 200 1.6 11.3 0.00 0.00 0.00 69 1003.3
20260505223617 31 62 1.6 11.3 0.00 0.00 0.00 66 1003.2
20260505223113 31 84 1.6 8.0 0.00 0.00 0.00 64 1003.1
20260505222614 31 70 1.6 8.0 0.00 0.00 0.00 64 1003.0
20260505222113 31 218 0.0 1.6 0.00 0.00 0.00 61 1003.0
20260505221615 31 281 0.0 4.8 0.00 0.00 0.00 60 1003.1
20260505221113 31 263 1.6 6.4 0.00 0.00 0.00 59 1003.1
20260505220608 31 238 1.6 6.4 0.00 0.00 0.00 61 1003.1
20260505215558 31 251 0.0 9.7 0.00 0.00 0.00 59 1003.2
20260505215109 31 221 0.0 4.8 0.00 0.00 0.00 59 1003.2
20260505214557 31 302 1.6 4.8 0.00 0.00 0.00 60 1003.2
20260505214058 31 279 0.0 6.4 0.00 0.00 0.00 60 1003.4
20260505213700 31 253 0.0 6.4 0.00 0.00 0.00 59 1003.4
20260505212555 31 269 0.0 4.8 0.00 0.00 0.00 60 1003.5
20260505212056 31 188 0.0 3.2 0.00 0.00 0.00 61 1003.5
20260505211555 31 227 1.6 6.4 0.00 0.00 0.00 60 1003.6
20260505211412 31 229 1.6 6.4 0.00 0.00 0.00 61 1003.6
20260505210700 31 230 1.6 6.4 0.00 0.00 0.00 61 1003.5
20260505205554 31 285 1.6 6.4 0.00 0.00 0.00 60 1003.7
20260505205052 31 252 1.6 9.7 0.00 0.00 0.00 61 1003.7
20260505204551 31 250 1.6 9.7 0.00 0.00 0.00 62 1003.9
20260505204400 31 252 1.6 4.8 0.00 0.00 0.00 62 1004.1
20260505203549 31 248 1.6 8.0 0.00 0.00 0.00 64 1004.0
20260505203049 30 257 1.6 8.0 0.00 0.00 0.00 63 1004.0
20260505202549 30 248 1.6 8.0 0.00 0.00 0.00 66 1003.9
20260505202358 30 250 1.6 6.4 0.00 0.00 0.00 66 1004.1
20260505201554 30 272 1.6 6.4 0.00 0.00 0.00 65 1004.0
20260505201045 30 249 1.6 4.8 0.00 0.00 0.00 66 1004.1
20260505200547 30 247 1.6 8.0 0.00 0.00 0.00 65 1004.1
20260505200046 30 269 1.6 8.0 0.00 0.00 0.00 66 1004.2
20260505195546 30 244 1.6 6.4 0.00 0.00 0.00 65 1004.1
20260505195356 30 270 1.6 6.4 0.00 0.00 0.00 67 1004.2
20260505194546 30 274 1.6 6.4 0.00 0.00 0.00 68 1004.1
20260505194049 30 214 1.6 9.7 0.00 0.00 0.00 68 1004.4
20260505193545 30 210 1.6 9.7 0.00 0.00 0.00 68 1004.2
20260505193045 30 266 1.6 9.7 0.00 0.00 0.00 69 1004.2
20260505192855 30 250 1.6 9.7 0.00 0.00 0.00 68 1004.3
20260505192045 29 176 1.6 6.4 0.00 0.00 0.00 69 1004.2
20260505191902 30 246 1.6 8.0 0.00 0.00 0.00 68 1004.3
20260505191407 30 243 1.6 11.3 0.00 0.00 0.00 68 1004.3
20260505190907 29 226 1.6 11.3 0.00 0.00 0.00 68 1004.4
20260505190045 29 238 1.6 6.4 0.00 0.00 0.00 69 1004.4
20260505185546 29 226 1.6 6.4 0.00 0.00 0.00 70 1004.4
20260505185045 28 265 1.6 8.0 0.00 0.00 0.00 70 1004.5
20260505184858 28 262 1.6 8.0 0.00 0.00 0.00 70 1004.5
20260505184042 28 238 1.6 4.8 0.00 0.00 0.00 69 1004.5
20260505183542 28 270 1.6 9.7 0.00 0.00 0.00 70 1004.5
20260505183041 28 245 1.6 9.7 0.00 0.00 0.00 70 1004.5
20260505182543 28 219 1.6 6.4 0.00 0.00 0.00 70 1004.5
20260505182041 28 274 1.6 6.4 0.00 0.00 0.00 69 1004.5
20260505181541 28 250 1.6 8.0 0.00 0.00 0.00 69 1004.6
20260505181042 28 271 1.6 9.7 0.00 0.00 0.00 69 1004.6
20260505180542 28 265 1.6 9.7 0.00 0.00 0.00 69 1004.6
20260505180039 28 155 3.2 14.5 0.00 0.00 0.00 69 1004.6
20260505175830 28 166 3.2 14.5 0.00 0.00 0.00 69 1004.6
20260505175336 28 242 1.6 9.7 0.00 0.00 0.00 69 1004.6
20260505174522 28 144 1.6 9.7 0.00 0.00 0.00 69 1004.7
20260505174024 28 256 1.6 9.7 0.00 0.00 0.00 70 1004.8
20260505173522 28 250 1.6 6.4 0.00 0.00 0.00 69 1004.8
20260505173022 28 226 1.6 6.4 0.00 0.00 0.00 69 1004.8
20260505172521 28 276 1.6 11.3 0.00 0.00 0.00 70 1004.8
20260505172021 28 274 1.6 11.3 0.00 0.00 0.00 71 1004.8
20260505171522 27 239 1.6 6.4 0.00 0.00 0.00 71 1004.9
20260505171017 27 245 3.2 12.9 0.00 0.00 0.00 71 1004.9
20260505170518 27 156 3.2 12.9 0.00 0.00 0.00 71 1004.9
20260505170118 27 222 3.2 8.0 0.00 0.00 0.00 71 1004.9
20260505165517 27 213 1.6 6.4 0.00 0.00 0.00 71 1004.9
20260505165331 27 246 1.6 8.0 0.00 0.00 0.00 72 1004.8
20260505164519 27 251 3.2 8.0 0.00 0.00 0.00 72 1004.8
20260505164018 27 243 1.6 6.4 0.00 0.00 0.00 71 1004.9
20260505163517 27 255 1.6 11.3 0.00 0.00 0.00 72 1004.8
20260505163014 27 255 1.6 11.3 0.00 0.00 0.00 71 1004.7
20260505162515 27 34 3.2 11.3 0.00 0.00 0.00 71 1004.8
20260505162016 27 210 3.2 11.3 0.00 0.00 0.00 70 1004.8
20260505161512 27 229 1.6 11.3 0.00 0.00 0.00 72 1004.6
20260505161013 27 277 1.6 11.3 0.00 0.00 0.00 73 1004.5
20260505160511 27 249 3.2 9.7 0.00 0.00 0.00 74 1004.5
20260505152459 26 179 3.2 11.3 0.00 0.00 0.00 76 1004.6
20260505152000 26 258 1.6 8.0 0.00 0.00 0.00 77 1004.7
20260505151458 25 231 1.6 6.4 0.00 0.00 0.00 78 1004.7
20260505150958 25 256 1.6 6.4 0.00 0.00 0.00 79 1004.7
20260505150455 25 288 1.6 6.4 0.00 0.00 0.00 79 1004.8
20260505140447 23 260 1.6 6.4 0.00 0.00 0.00 83 1004.9
20260505124920 22 263 0.0 4.8 0.00 0.00 0.00 85 1004.5
20260505124420 22 277 1.6 4.8 0.00 0.00 0.00 85 1004.5
20260505123922 22 294 1.6 6.4 0.00 0.00 0.00 85 1004.3
20260505123440 22 245 1.6 6.4 0.00 0.00 0.00 85 1004.1
20260505123229 22 96 1.6 6.4 0.00 0.00 0.00 85 1004.0
20260505122419 22 251 1.6 6.4 0.00 0.00 0.00 85 1004.0
20260505121920 22 277 1.6 6.4 0.00 0.00 0.00 86 1004.1
20260505121739 22 272 1.6 6.4 0.00 0.00 0.00 86 1004.2
20260505120914 22 264 1.6 6.4 0.00 0.00 0.00 86 1004.0
20260505120415 22 256 0.0 4.8 0.00 0.00 0.00 85 1004.0
20260505115915 22 266 1.6 11.3 0.00 0.00 0.00 85 1004.0
20260505115408 22 283 1.6 11.3 0.00 0.00 0.00 85 1004.0
20260505114904 21 257 1.6 8.0 0.00 0.00 0.00 85 1003.9
20260505114358 21 251 1.6 11.3 0.00 0.00 0.00 85 1004.0
20260505113850 21 255 1.6 11.3 0.00 0.00 0.00 85 1003.9
20260505113345 21 258 1.6 11.3 0.00 0.00 0.00 86 1003.8
20260505112839 21 287 1.6 11.3 0.00 0.00 0.00 86 1003.7
20260505112333 21 272 1.6 11.3 0.00 0.00 0.00 86 1003.8
20260505111827 21 248 1.6 4.8 0.00 0.00 0.00 86 1003.7
20260505111321 21 281 1.6 4.8 0.00 0.00 0.00 86 1003.6
20260505110815 21 243 1.6 9.7 0.00 0.00 0.00 86 1003.5
20260505110622 21 264 1.6 9.7 0.00 0.00 0.00 85 1003.4
20260505102222 22 273 1.6 9.7 0.00 0.00 0.00 85 1003.8
20260505101714 22 136 1.6 9.7 0.00 0.00 0.00 85 1003.8
20260505101530 22 205 1.6 8.0 0.00 0.00 0.00 85 1003.8
20260505101525 22 249 1.6 11.3 0.00 0.00 0.00 84 1003.8
20260505095653 22 271 1.6 11.3 0.00 0.00 0.00 84 1003.9
20260505095145 22 248 1.6 9.7 0.00 0.00 0.00 85 1003.9
20260505094639 22 268 1.6 9.7 0.00 0.00 0.00 85 1003.9
20260505094447 22 15 1.6 6.4 0.00 0.00 0.00 85 1004.0
20260505093627 22 265 1.6 4.8 0.00 0.00 0.00 85 1004.1
20260505093121 22 276 1.6 9.7 0.00 0.00 0.00 85 1004.1
20260505092615 22 250 1.6 9.7 0.00 0.00 0.00 85 1004.1
20260505092109 22 216 1.6 4.8 0.00 0.00 0.00 85 1004.1
20260505091605 22 264 1.6 6.4 0.00 0.00 0.00 85 1004.2
20260505091056 21 254 1.6 11.3 0.00 0.00 0.00 85 1004.3
20260505090552 21 252 1.6 14.5 0.00 0.00 0.00 85 1004.2
20260505090046 21 236 1.6 14.5 0.00 0.00 0.00 85 1004.0
20260505085542 21 254 3.2 8.0 0.00 0.00 0.00 85 1004.1
20260505085034 21 242 1.6 8.0 0.00 0.00 0.00 85 1004.1
20260505084528 21 250 1.6 8.0 0.00 0.00 0.00 85 1004.2
20260505084021 21 283 1.6 8.0 0.00 0.00 0.00 85 1004.1
20260505083514 21 230 1.6 8.0 0.00 0.00 0.00 85 1004.0
20260505083010 21 252 1.6 11.3 0.00 0.00 0.00 85 1004.1
20260505082504 21 245 1.6 11.3 0.00 0.00 0.00 85 1004.2
20260505081957 21 214 1.6 8.0 0.00 0.00 0.00 85 1004.2
20260505081802 21 249 1.6 8.0 0.00 0.00 0.00 84 1004.1
20260505080945 21 271 1.6 8.0 0.00 0.00 0.00 84 1004.2
20260505080441 21 254 1.6 8.0 0.00 0.00 0.00 84 1004.2
20260505075933 22 292 1.6 8.0 0.00 0.00 0.00 84 1004.3
20260505075427 22 226 1.6 8.0 0.00 0.00 0.00 84 1004.4
20260505074921 22 238 1.6 11.3 0.00 0.00 0.00 83 1004.4
20260505074414 22 292 1.6 11.3 0.00 0.00 0.00 83 1004.6
20260505073919 22 265 1.6 12.9 0.00 0.00 0.00 83 1004.7
20260505073413 22 239 1.6 12.9 0.00 0.00 0.00 83 1004.9
20260505072913 22 268 3.2 16.1 0.00 0.00 0.00 83 1004.9
20260505072410 22 268 3.2 16.1 0.00 0.00 0.00 82 1005.0
20260505071911 22 301 1.6 11.3 0.00 0.00 0.00 82 1005.1
20260505071411 22 271 3.2 12.9 0.00 0.00 0.00 82 1005.0
20260505070913 22 272 1.6 12.9 0.00 0.00 0.00 82 1005.1
20260505070410 22 268 1.6 11.3 0.00 0.00 0.00 82 1005.1
20260505065911 22 157 1.6 8.0 0.00 0.00 0.00 82 1005.1
20260505065409 22 227 1.6 8.0 0.00 0.00 0.00 82 1005.2
20260505064908 22 257 1.6 12.9 0.00 0.00 0.00 81 1005.3
20260505064408 22 244 1.6 12.9 0.00 0.00 0.00 81 1005.3
20260505064222 22 245 1.6 16.1 0.00 0.00 0.00 81 1005.4
20260505063407 22 243 1.6 16.1 0.00 0.00 0.00 81 1005.4
20260505063227 22 278 1.6 9.7 0.00 0.00 0.00 81 1005.3
20260505062407 22 158 1.6 8.0 0.00 0.00 0.00 81 1005.3
20260505061906 22 281 1.6 9.7 0.00 0.00 0.00 80 1005.3
20260505061401 22 268 1.6 9.7 0.00 0.00 0.00 80 1005.3
20260505060855 22 282 1.6 9.7 0.00 0.00 0.00 80 1005.3
20260505060349 22 140 1.6 9.7 0.00 0.00 0.00 80 1005.4
20260505060159 22 130 1.6 11.3 0.00 0.00 0.00 80 1005.5
20260505055650 22 343 1.6 11.3 0.00 0.00 0.00 80 1005.5
20260505054831 22 8 1.6 9.7 0.00 0.00 0.00 79 1005.6
20260505054326 22 215 1.6 9.7 0.00 0.00 0.00 79 1005.6
20260505053819 22 275 1.6 6.4 0.00 0.00 0.00 79 1005.5
20260505053313 22 248 1.6 6.4 0.00 0.00 0.00 79 1005.7
20260505052807 22 336 1.6 11.3 0.00 0.00 0.00 79 1005.8
20260505052304 22 289 1.6 11.3 0.00 0.00 0.00 78 1005.7
20260505051755 22 336 1.6 11.3 0.00 0.00 0.00 78 1005.7
20260505051249 22 254 1.6 11.3 0.00 0.00 0.00 78 1005.8
20260505050744 22 248 1.6 8.0 0.00 0.00 0.00 77 1005.7
20260505050239 22 61 1.6 8.0 0.00 0.00 0.00 77 1005.8
20260505041642 23 243 1.6 12.9 0.00 0.00 0.00 76 1006.1
20260505041137 23 284 1.6 12.9 0.00 0.00 0.00 75 1006.1
20260505040629 23 264 1.6 8.0 0.00 0.00 0.00 75 1006.1
20260505040125 23 319 1.6 9.7 0.00 0.00 0.00 75 1006.2
20260505035933 23 120 1.6 9.7 0.00 0.00 0.00 75 1006.1
20260505035111 23 140 1.6 9.7 0.00 0.00 0.00 74 1005.9
20260505034606 23 275 1.6 9.7 0.00 0.00 0.00 74 1006.0
20260505034421 23 206 1.6 8.0 0.00 0.00 0.00 74 1006.0
20260505033554 23 115 1.6 9.7 0.00 0.00 0.00 74 1006.1
20260505033048 23 235 1.6 9.7 0.00 0.00 0.00 74 1006.2
20260505032547 23 252 1.6 6.4 0.00 0.00 0.00 74 1006.1
20260505032039 23 302 1.6 6.4 0.00 0.00 0.00 74 1006.2
20260505031529 23 281 1.6 4.8 0.00 0.00 0.00 74 1006.2
20260505031024 23 354 1.6 9.7 0.00 0.00 0.00 73 1006.2
20260505030517 23 243 1.6 6.4 0.00 0.00 0.00 73 1006.1
20260505030016 23 13 1.6 6.4 0.00 0.00 0.00 73 1006.2
20260505025507 23 269 1.6 6.4 0.00 0.00 0.00 73 1006.3
20260505025000 23 266 1.6 8.0 0.00 0.00 0.00 73 1006.1
20260505024453 23 155 1.6 8.0 0.00 0.00 0.00 72 1006.1
20260505024304 23 302 1.6 8.0 0.00 0.00 0.00 72 1006.1
20260505023759 23 274 1.6 6.4 0.00 0.00 0.00 72 1006.0
20260505022935 23 15 1.6 8.0 0.00 0.00 0.00 72 1005.9
20260505022430 23 346 1.6 9.7 0.00 0.00 0.00 72 1006.0
20260505021924 23 9 1.6 9.7 0.00 0.00 0.00 71 1006.0
20260505021417 24 115 1.6 6.4 0.00 0.00 0.00 71 1006.0
20260505021229 24 283 1.6 11.3 0.00 0.00 0.00 71 1006.0
20260505020725 24 342 1.6 11.3 0.00 0.00 0.00 71 1005.9
20260505015859 24 262 1.6 6.4 0.00 0.00 0.00 70 1005.9
20260505015710 24 128 1.6 9.7 0.00 0.00 0.00 70 1006.1
20260505015204 24 30 1.6 9.7 0.00 0.00 0.00 70 1005.9
20260505014343 24 41 1.6 8.0 0.00 0.00 0.00 70 1006.0
20260505013836 24 306 1.6 6.4 0.00 0.00 0.00 70 1006.0
20260505013330 24 252 1.6 6.4 0.00 0.00 0.00 69 1006.0
20260505013155 24 58 1.6 8.0 0.00 0.00 0.00 69 1006.0
20260505012318 24 256 1.6 8.0 0.00 0.00 0.00 69 1006.0
20260505011814 25 257 1.6 11.3 0.00 0.00 0.00 68 1005.9
20260505011615 25 346 1.6 11.3 0.00 0.00 0.00 68 1005.9
20260505010903 25 165 1.6 9.7 0.00 0.00 0.00 68 1005.9
20260505005748 25 259 3.2 11.3 0.00 0.00 0.00 67 1005.6
20260505005243 25 288 1.6 11.3 0.00 0.00 0.00 67 1005.9
20260505004736 25 214 1.6 9.7 0.00 0.00 0.00 67 1005.9
20260505004232 25 290 1.6 8.0 0.00 0.00 0.00 67 1005.9
20260505003724 25 322 1.6 12.9 0.00 0.00 0.00 66 1006.0
20260505003219 25 222 3.2 12.9 0.00 0.00 0.00 66 1005.9
20260505002711 25 285 3.2 14.5 0.00 0.00 0.00 66 1005.9